Tracking 17938 objects as of 21-February-2017
HD Live streaming from Space Station
objects crossing your sky now

IABS R/B

Track IABS R/B now!


NORAD ID: 26054
Int'l Code: 2000-001C
Perigee: 35,441.5 km
Apogee: 35,641.6 km
Inclination: 12.9 °
Period: 1,423.2 minutes
Semi major axis: 41912 km
RCS: Unknown
Launch date: January 21, 2000
Source: United States (US)
Launch site: AIR FORCE EASTERN TEST RANGE (AFETR)

Note: This is a ROCKET BODY
Your satellite tracking list
Your tracking list is empty





NASA's NSSDC Master Catalog

Two Line Element Set (TLE):
1 26054U 00001C   17017.65887911 0.00000000  00000-0  00000-0 0    02
2 26054  12.9232  28.9731 0023871 261.0927  98.6490  1.01178090    09
Source of the keplerian elements: McCants